Location: Cazavet
(43.0017°N, 1.0431°E)
Time: 20:52:54
(UTC+00:00)

Cosmos 2278 Rocket - Pass Details

Date: 18 January 2026
Orbit: 839 x 846 km, 71.0° (Epoch: 10 February)

Event Time Altitude Azimuth Distance (km) Brightness Sun altitude
Exits shadow 05:56:26 13° 241° (WSW) 2,234 4.0 -15.6°
Maximum altitude 06:00:55 36° 304° (WNW) 1,313 2.7 -14.8°
Drops below altitude 10° 06:06:07 10° 10° (N) 2,469 4.6 -13.9°
Sets 06:08:47 0° 19° (NNE) 3,408 5.4 -13.4°
